Address 0xaecb178d52f351ae954186df94bcb29f12abf1fe 1

 
 
Txn Hash Method
Block
From
To
Value [Txn Fee]
0x7807325f5bc84f69d0491f26df5f86492402736fdb7920ca6baf5d5804d4ea260xb6ace2fd105985802021-09-03 17:36:5818 days 18 hrs ago0xaecb178d52f351ae954186df94bcb29f12abf1feOUT 0xf6eb109cacab713f358c8e848b359f24e83c06e10 BNB0.00034443
0x98f657e9c5b0acabb12a741214368d4e31372093cdc1b2dd413f611e60835a84Transfer102775552021-08-23 10:39:2130 days 59 mins ago0xaecb178d52f351ae954186df94bcb29f12abf1feOUT Plant vs Undead: PVU Token0 BNB0.000110365
0x26801f30a546137ad9761288e451d40934d99bdcb7ba48db37cc8bd45ff330f20xb6ace2fd102775362021-08-23 10:38:2430 days 1 hr ago0xaecb178d52f351ae954186df94bcb29f12abf1feOUT 0xf6eb109cacab713f358c8e848b359f24e83c06e10 BNB0.00041949
0x3960db2f67734b1793a8b31f75eafa0b95317065982d06a668ccab0a46e72b910x310f2668102771582021-08-23 10:19:3030 days 1 hr ago0xaecb178d52f351ae954186df94bcb29f12abf1feOUT 0xf6eb109cacab713f358c8e848b359f24e83c06e10 BNB0.00018337
0x8bd27fcbdacdf415801792fa74ed0ccfdbf0c1c48e04426830b56fbde8a85a11Approve102771522021-08-23 10:19:1230 days 1 hr ago0xaecb178d52f351ae954186df94bcb29f12abf1feOUT Plant vs Undead: PVU Token0 BNB0.00022488
0xb43b5bbdeb45c7f0d8da884fa84a05f86067bc9f4dbf9016fbc22c62a94ca897Transfer102124192021-08-21 4:07:1432 days 7 hrs ago0xaecb178d52f351ae954186df94bcb29f12abf1feOUT Plant vs Undead: PVU Token0 BNB0.000110365
0xdf0a290011919982d01103df31ded43fa9460d635655eae4ebe13b42392c9200Withdraw99722152021-08-12 18:34:2640 days 17 hrs ago0xaecb178d52f351ae954186df94bcb29f12abf1feOUT 0x965aef784593d94f4fabd7a7a82e713a828740780 BNB0.00038789
0x5f9f4abc5e669fdcc6b98f7cf2b157078d5cbe3031709b41638cde5b49abb726Fight99561582021-08-12 4:55:5141 days 6 hrs ago0xaecb178d52f351ae954186df94bcb29f12abf1feOUT CryptoBlades: Gameplay0 BNB0.00074407
0xde9ae5541e835fe2b6f50a77e87ed106982507c1599ad84223334e266b195fedFight99561502021-08-12 4:55:2641 days 6 hrs ago0xaecb178d52f351ae954186df94bcb29f12abf1feOUT CryptoBlades: Gameplay0 BNB0.000745935
0x61e5ed67a8f208262761089ef467459f6ceea1973eacf1d7c6f0bebc4d7efde2Fight99561442021-08-12 4:55:0841 days 6 hrs ago0xaecb178d52f351ae954186df94bcb29f12abf1feOUT CryptoBlades: Gameplay0 BNB0.00074407
0xd54d2147dc22481715909f3290043c09b1b93b4a11e59cc7144cf7d9a91c3516Fight99561362021-08-12 4:54:4441 days 6 hrs ago0xaecb178d52f351ae954186df94bcb29f12abf1feOUT CryptoBlades: Gameplay0 BNB0.00074908
0xec27807c441a1dc7c34633985377210197e3ccc4ecc226759f92d7dc7dd94721Fight99408732021-08-11 15:18:1941 days 20 hrs ago0xaecb178d52f351ae954186df94bcb29f12abf1feOUT CryptoBlades: Gameplay0 BNB0.000748695
0x26eea2a1962e8bd0db10a5b77df9f3bccfa5be5f032466c7bbbac210e0500e3aFight99408522021-08-11 15:17:1641 days 20 hrs ago0xaecb178d52f351ae954186df94bcb29f12abf1feOUT CryptoBlades: Gameplay0 BNB0.00074418
0x447b9ec887ce7baaf1853a6a575f5a34452aeb84c582ae9998dd27695aeef14eFight99408302021-08-11 15:16:1041 days 20 hrs ago0xaecb178d52f351ae954186df94bcb29f12abf1feOUT CryptoBlades: Gameplay0 BNB0.00074418
0x6c201cb83850c97b9fd2054ffc1f9d7e97a3dbd124e0b937db969f528e4da002Fight99407992021-08-11 15:14:3741 days 20 hrs ago0xaecb178d52f351ae954186df94bcb29f12abf1feOUT CryptoBlades: Gameplay0 BNB0.000745935
0x2a655f8e5b2cd4e72be018124329159eeca2beafc8c7fb188761ff2ee28e6862Fight99281642021-08-11 4:34:0742 days 7 hrs ago0xaecb178d52f351ae954186df94bcb29f12abf1feOUT CryptoBlades: Gameplay0 BNB0.00074982
0x7bd6cd80d794d8362285119d2671080506343e97750b7ee3a4a21bd5e15db2c3Fight99281542021-08-11 4:33:3742 days 7 hrs ago0xaecb178d52f351ae954186df94bcb29f12abf1feOUT CryptoBlades: Gameplay0 BNB0.00075046
0xa9e34ebf2a79160f72ef448a4785b0974121c4356f96fcc1176b9408efec1a58Fight99281452021-08-11 4:33:1042 days 7 hrs ago0xaecb178d52f351ae954186df94bcb29f12abf1feOUT CryptoBlades: Gameplay0 BNB0.00075108
0x3f121808a603f4210f49b19eb09220777f59c6cfb0fe0a2d7464216daa339c48Fight99281332021-08-11 4:32:3442 days 7 hrs ago0xaecb178d52f351ae954186df94bcb29f12abf1feOUT CryptoBlades: Gameplay0 BNB0.000744775
0x81b6c12ea663f862ed513147e3c5089179833eada40d9f0546c5a1a4de0d8308Fight99129502021-08-10 15:50:4742 days 19 hrs ago0xaecb178d52f351ae954186df94bcb29f12abf1feOUT CryptoBlades: Gameplay0 BNB0.000744785
0x9b4b910c201b6db07fad9816625f2d4419cfba60cc4261e018b179e4b42ff098Fight99129352021-08-10 15:50:0142 days 19 hrs ago0xaecb178d52f351ae954186df94bcb29f12abf1feOUT CryptoBlades: Gameplay0 BNB0.000745995
0xeded92b07f5ed1f02db753da0378f8fa93fe1f6b119d42924bf7c21703d55104Fight99129222021-08-10 15:49:2242 days 19 hrs ago0xaecb178d52f351ae954186df94bcb29f12abf1feOUT CryptoBlades: Gameplay0 BNB0.000748645
0xa6de253dbb34b3927ee51774969153589d063d7919cc30fe1e787b710cf1c5aeFight99128992021-08-10 15:48:1342 days 19 hrs ago0xaecb178d52f351ae954186df94bcb29f12abf1feOUT CryptoBlades: Gameplay0 BNB0.000744775
0x46b9e6fe9be237c4941c08b20518123eda63e9f0389ffd5f438b2e735b901e81Fight99004682021-08-10 4:56:1543 days 6 hrs ago0xaecb178d52f351ae954186df94bcb29f12abf1feOUT CryptoBlades: Gameplay0 BNB0.00074418
0x10a8bf8024b68e1aded00aded5c1967c840e8dfc7a8c75235df06478168480faFight99004542021-08-10 4:55:3343 days 6 hrs ago0xaecb178d52f351ae954186df94bcb29f12abf1feOUT CryptoBlades: Gameplay0 BNB0.000709095
[ Download CSV Export 
Parent Txn Hash Block From To Value
Loading

Contract Name:
0 BNB

Compiler Version
0

Optimization Enabled:
0 BNB

Other Settings:
-NA-
Block Transaction Gas Used Reward
Age Block Fee Address BC Fee Address Voting Power Jailed Incoming
Block Uncle Number Difficulty Gas Used Reward
Loading
Loading
Make sure to use the "Vote Down" button for any spammy posts, and the "Vote Up" for interesting conversations.